Location: Newark
(45.4422°N, 16.2769°E)
Time: 04:48:19
(UTC+00:00)

SR - All Passes

Search period start: 15 December 2019 00:00
Search period end: 25 December 2019 00:00
Orbit: 573 x 882 km, 66.7° (Epoch: 13 December)

Date Brightness Start Highest point End Pass type
(mag) Time Alt. Az. Time Alt. Az. Time Alt. Az.
15 Dec - 05:57:03 10° SSE 06:00:52 19° ESE 06:04:50 10° ENE daylight
15 Dec - 07:36:43 10° SW 07:42:17 76° WNW 07:48:14 10° NNE daylight
15 Dec - 09:21:17 10° W 09:25:27 20° NW 09:29:44 10° NNE daylight
15 Dec - 12:53:34 10° N 12:55:12 11° NNE 12:56:49 10° NNE daylight
15 Dec - 14:34:15 10° NNW 14:39:23 29° NE 14:44:19 10° ESE daylight
15 Dec - 16:16:10 10° NW 16:21:57 62° WSW 16:27:23 10° SSE visible
16 Dec - 06:47:11 10° SSW 06:52:38 62° ESE 06:58:28 10° NE daylight
16 Dec - 08:30:16 10° WSW 08:35:13 30° NW 08:40:23 10° NNE daylight
16 Dec - 10:17:46 10° NW 10:19:25 11° NNW 10:21:04 10° N daylight
16 Dec - 13:44:52 10° NNW 13:49:09 20° NNE 13:53:18 10° E daylight
16 Dec - 15:26:24 10° NNW 15:32:19 76° NE 15:37:51 10° SE daylight
16 Dec - 17:09:48 10° WNW 17:13:44 19° WSW 17:17:31 10° SSW visible
17 Dec - 05:58:17 10° S 06:03:13 34° ESE 06:08:25 10° NE daylight
17 Dec - 07:39:46 10° WSW 07:45:11 47° NW 07:50:55 10° NNE daylight
17 Dec - 09:25:40 10° WNW 09:28:51 15° NNW 09:32:06 10° N daylight
17 Dec - 12:55:39 10° N 12:58:44 14° NNE 13:01:47 10° ENE daylight
17 Dec - 14:36:49 10° NNW 14:42:28 45° NE 14:47:48 10° ESE daylight
17 Dec - 16:19:14 10° NW 16:24:29 36° WSW 16:29:26 10° S visible
18 Dec - 05:10:17 10° SE 05:13:58 18° ESE 05:17:48 10° ENE visible
18 Dec - 06:49:45 10° SW 06:55:21 79° NW 07:01:19 10° NNE daylight
18 Dec - 08:34:11 10° W 08:38:28 21° NW 08:42:51 10° NNE daylight
18 Dec - 12:06:46 10° N 12:08:11 11° NNE 12:09:34 10° NNE daylight
18 Dec - 13:47:21 10° NNW 13:52:25 28° NE 13:57:15 10° E daylight
18 Dec - 15:29:14 10° NW 15:35:02 66° WSW 15:40:28 10° SSE daylight
19 Dec - 06:00:16 10° SSW 06:05:43 59° ESE 06:11:31 10° NE daylight
19 Dec - 07:43:13 10° WSW 07:48:15 31° NW 07:53:28 10° NNE daylight
19 Dec - 09:30:32 10° NW 09:32:23 11° NNW 09:34:15 10° N daylight
19 Dec - 12:57:59 10° NNW 13:02:10 19° NNE 13:06:12 10° ENE daylight
19 Dec - 14:39:28 10° NNW 14:45:23 72° NE 14:50:53 10° SE daylight
19 Dec - 16:22:46 10° WNW 16:26:51 20° WSW 16:30:45 10° SSW visible
20 Dec - 05:11:26 10° S 05:16:19 32° ESE 05:21:26 10° NE visible
20 Dec - 06:52:45 10° SW 06:58:14 49° NW 07:04:00 10° NNE daylight
20 Dec - 08:38:31 10° WNW 08:41:51 15° NNW 08:45:14 10° N daylight
20 Dec - 12:08:47 10° N 12:11:43 14° NNE 12:14:38 10° NE daylight
20 Dec - 13:49:54 10° NNW 13:55:30 42° NE 14:00:47 10° ESE daylight
20 Dec - 15:32:17 10° NW 15:37:35 37° WSW 15:42:33 10° S daylight
21 Dec - 04:23:32 10° SE 04:27:05 17° ESE 04:30:44 10° ENE visible
21 Dec - 06:02:47 10° SW 06:08:25 83° WNW 06:14:23 10° NNE daylight
21 Dec - 07:47:06 10° W 07:51:28 22° NW 07:55:58 10° NNE daylight
21 Dec - 11:20:00 10° N 11:21:09 10° NNE 11:22:17 10° NNE daylight
21 Dec - 13:00:27 10° NNW 13:05:26 27° NE 13:10:10 10° E daylight
21 Dec - 14:42:17 10° NW 14:48:07 69° WSW 14:53:32 10° SSE daylight
21 Dec - 16:28:05 10° W 16:29:03 10° W 16:30:00 10° WSW visible
22 Dec - 05:13:21 10° SSW 05:18:48 56° ESE 05:24:34 10° NE visible
22 Dec - 06:56:11 10° WSW 07:01:17 32° NW 07:06:35 10° NNE daylight
22 Dec - 08:43:21 10° NW 08:45:22 12° NNW 08:47:24 10° N daylight
22 Dec - 12:11:06 10° N 12:15:09 19° NNE 12:19:05 10° ENE daylight
22 Dec - 13:52:33 10° NNW 13:58:26 68° NE 14:03:54 10° SE daylight
22 Dec - 15:35:44 10° WNW 15:39:56 21° WSW 15:43:57 10° SSW daylight
23 Dec - 04:24:34 10° S 04:29:24 31° ESE 04:34:28 10° NE visible
23 Dec - 06:05:45 10° SW 06:11:16 52° NW 06:17:05 10° NNE daylight
23 Dec - 07:51:23 10° WNW 07:54:50 16° NNW 07:58:20 10° N daylight
23 Dec - 11:21:54 10° N 11:24:43 13° NNE 11:27:28 10° NE daylight
23 Dec - 13:03:00 10° NNW 13:08:32 41° NE 13:13:45 10° ESE daylight
23 Dec - 14:45:19 10° NW 14:50:40 39° WSW 14:55:40 10° S daylight
24 Dec - 03:36:48 10° SE 03:40:11 16° ESE 03:43:40 10° ENE visible
24 Dec - 05:15:49 10° SSW 05:21:29 87° WNW 05:27:27 10° NNE visible
24 Dec - 07:00:01 10° W 07:04:28 22° NW 07:09:04 10° NNE daylight
24 Dec - 10:33:19 10° N 10:34:07 10° NNE 10:34:55 10° NNE daylight
24 Dec - 12:13:33 10° NNW 12:18:26 26° NE 12:23:07 10° E daylight
24 Dec - 13:55:21 10° NW 14:01:11 73° WSW 14:06:35 10° SSE daylight
24 Dec - 15:40:36 10° W 15:42:10 11° W 15:43:41 10° WSW daylight
